Regional Weather Roundup
Issued by NWS

Home | Current Version | Previous Version | Graphics & Text | Print | Product List | Glossary On
Versions: 1 2 3 4 5 6 7 8 9 10 11 12 13 14 15 16 17 18 19 20 21 22 23 24 25 26 27 28 29 30 31 32 33 34 35 36 37 38 39 40 41 42 43 44 45 46 47 48 49 50
000
ASUS45 KCYS 252310
RWRWY

WYOMING REGIONAL WEATHER ROUNDUP
NATIONAL WEATHER SERVICE CHEYENNE WY
500 PM MDT MON SEP 25 2017

NOTE:  "FAIR" INDICATES FEW OR NO CLOUDS BELOW 12,000 FEET
WITH NO SIGNIFICANT WEATHER AND/OR OBSTRUCTIONS TO VISIBILITY.

WYZ001-260000-
YELLOWSTONE NATIONAL PARK

CITY           SKY/WX    TMP DP  RH WIND       PRES   REMARKS
LK YELLOWSTONE NOT AVBL
W YELLOWSTONE  NOT AVBL

$$
WYZ002>013-054>058-071-098>099-260000-
NORTHERN WYOMING

CITY           SKY/WX    TMP DP  RH WIND       PRES   REMARKS
JACKSON        CLOUDY    46  26  45 W10G20    30.13S
CODY           PTSUNNY   51  35  54 VRB5      30.08S
GREYBULL       FAIR      53  41  63 VRB5      30.07S
WORLAND        FAIR      54  38  54 CALM      30.06S
SHERIDAN       CLOUDY    51  39  63 CALM      30.08R
BUFFALO        CLOUDY    46  37  71 N3        30.10R
GILLETTE       CLOUDY    48  40  73 N6        30.08R
HULETT         CLOUDY    46  41  81 CALM      30.10S
NEWCASTLE      CLOUDY    50  36  57 S7        30.10S

$$
WYZ014>020-022>026-101>103-260000-
CENTRAL WYOMING

CITY           SKY/WX    TMP DP  RH WIND       PRES   REMARKS
BIG PINEY      CLOUDY    44  30  57 NW13      30.14S
PINEDALE       CLOUDY    45  30  57 NW17G25   30.14R
DUBOIS         LGT RAIN  37  32  81 NW12G21   30.11R WCI  30
LANDER         PTSUNNY   50  34  54 S5        30.07F
RIVERTON       CLOUDY    50  34  54 E3        30.08S
CASPER         PTSUNNY   50  34  54 W9        30.08R
DOUGLAS        CLOUDY    51  37  58 NW5       30.08S

$$
WYZ021-027>030-104>119-260000-
SOUTHERN WYOMING

CITY           SKY/WX    TMP DP  RH WIND       PRES   REMARKS
EVANSTON       CLOUDY    45  28  51 CALM      30.14S
FORT BRIDGER   CLOUDY    48  31  51 NW9       30.17S
ROCK SPRINGS   CLOUDY    46  30  53 W12       30.12S
DIXON          FAIR      52  26  37 W5        30.14S
RAWLINS        CLOUDY    43  33  68 NW10      30.11S
SARATOGA       MOCLDY    46  32  57 W8        30.12S
LARAMIE        PTSUNNY   47  31  53 N6        30.09R
CHEYENNE       PTSUNNY   52  34  50 SE12      30.07S
TORRINGTON     FAIR      54  39  57 CALM      30.06F
PINE BLUFFS    FAIR      52  39  62 E8        30.08S

$$



USA.gov is the U.S. government's official web portal to all federal, state and local government web resources and services.